Location: Colebrook
(42.0017°N, 73.0973°W)
Time: 15:24:02
(UTC-05:00)

Vanguard 2 - Pass Details

Date: 02 November 2021
Orbit: 554 x 2936 km, 32.9° (Epoch: 04 December)

Event Time Altitude Azimuth Distance (km) Brightness Sun altitude
Exits shadow 06:22:27 - 249° (WSW) 3,831 10.6 -12.4°
Reaches altitude 10° 06:24:13 10° 239° (WSW) 3,519 10.5 -12.0°
Maximum altitude 06:25:40 11° 229° (SW) 3,329 10.4 -11.8°
Drops below altitude 10° 06:27:02 10° 219° (SW) 3,221 10.4 -11.5°
Sets 06:32:31 0° 180° (S) 3,595 11.1 -10.5°
